Content
SEND FEEDBACK

Daily
Averages
Monthly
Summary
United States of America

SOUTH LAKE TAHOE, CALIFORNIA


Home > North America > United States > California
Elevation: 6263 feet     Latitude: 38 53N     Longitude: 119 59W

WEATHER
 
SELECT A DAY
Number of Records: 174,284;   Date Range: 1/1/95 - 7/7/14
 
SHARE

PRINT THIS DATA

[ ← Previous Day ]
WEATHER ALMANAC - MARCH 22, 2013
[ Next Day → ]
[ °C ]   °F
Weather ElementAverageHighLow
Temperature35.5 °F48 °F (2:53 pm)24.1 °F (6:53 am)
Dewpoint11.5 °F25 °F (1:53 am)-2.9 °F (5:53 pm)
Humidity46.6 %85 % (1:53 am)13 % (4:53 pm)
Barometer30.02 in30.09 in (9:53 pm)29.97 in (4:53 pm)
Wind Speed3.4 mph8.1 mph (2:53 pm)
Wind Gust17.3 mph (12:53 pm)
Weather ElementAverage
Visibility10 mi
Wind DirectionENE (83.6 °)

Weather ElementTotal
Precipitation---
Heating Degree Days29 (Base 65)
Averaged from 22 records on March 22, 2013
WEATHER CONDITIONS BREAKOUT
WIND DIRECTION BREAKOUT
WEATHER BY HOUR - MARCH 22, 2013
[ °C ]   °F
Local TimeTemperatureDewpointHumidityBarometerVisibilityWind DirectionWind SpeedGust SpeedPrecipitationEventsConditions
1:53 AM28.9 °F25.0 °F85 %30.02 in10.0 miCalmClear
2:53 AM28.0 °F24.1 °F85 %30.01 in10.0 miCalmClear
3:53 AM27.0 °F23.0 °F85 %30.00 in10.0 miSouth (180°)4.6 mphClear
4:53 AM27.0 °F21.9 °F81 %29.99 in10.0 miSouth (190°)5.8 mphClear
5:53 AM25.0 °F19.0 °F78 %30.00 in10.0 miSSW (200°)5.8 mphClear
6:53 AM24.1 °F16.0 °F71 %30.03 in10.0 miSSW (200°)5.8 mphClear
7:53 AM24.1 °F17.1 °F75 %30.05 in10.0 miSouth (180°)4.6 mphClear
8:53 AM28.9 °F18.0 °F64 %30.04 in10.0 miSouth (170°)3.5 mphClear
9:53 AM37.0 °F16.0 °F42 %30.01 in10.0 miENE (70°)3.5 mphClear
10:53 AM43.0 °F9.0 °F25 %29.99 in10.0 miCalmClear
11:53 AM43.0 °F-0.9 °F16 %30.00 in10.0 miVariable4.6 mphClear
12:53 PM44.1 °F-2.0 °F15 %30.00 in10.0 miNorth (360°)4.6 mph17.3 mphClear
1:53 PM46.0 °F-0.9 °F14 %29.98 in10.0 miNNE (20°)6.9 mphClear
2:53 PM48.0 °F1.9 °F15 %29.98 in10.0 miNE (40°)8.1 mphClear
3:53 PM46.9 °F0.0 °F14 %29.98 in10.0 miNNE (30°)6.9 mphClear
4:53 PM48.0 °F-2.0 °F13 %29.97 in10.0 miCalmClear
5:53 PM46.0 °F-2.9 °F13 %29.99 in10.0 miNNE (20°)5.8 mphClear
6:53 PM39.0 °F10.9 °F32 %30.04 in10.0 miCalmClear
7:53 PM35.1 °F14.0 °F42 %30.07 in10.0 miCalmClear
8:53 PM32.0 °F14.0 °F48 %30.08 in10.0 miCalmClear
9:53 PM30.0 °F15.1 °F54 %30.09 in10.0 miSouth (180°)3.5 mphClear
10:53 PM28.9 °F16.0 °F58 %30.08 in10.0 miCalmClear
Hourly data recorded from KTVL, located miles away from South Lake Tahoe, California







STORIES FROM OUR PARTNERS